[[{"header":{"parameterUnit":"m.s-1","parameterCategory":2,"la1":30.2991,"la2":30.254,"lo1":-89.0895,"lo2":-89.0444,"dy":0.0017,"dx":0.0017,"nx":28,"ny":28,"refTime":"2025-07-22T03:00:00:Z","depth":"0","parameterNumber":2,"parameterNumberName":"U-component_of_CURRENTS"},"data":[0,0,0,0,0,0,0,0,0,0,0,0,0,0,0,0,0,0,0,0,0,0,0,0,0,0,0,0,0,0,0,0,0,0,0,0,0,0,0,0,0,0,0,0,0,0,0,0,0,0,0,0,0,0,0,0,0,0,-0.3053,-0.3053,0,-0.3086,-0.3086,-0.3086,-0.3072,-0.3072,-0.3072,-0.3071,-0.3031,-0.3031,-0.303,0,0,0,0,0,0,0,0,0,0,0,0,0,-0.2844,-0.2849,-0.3052,-0.3053,-0.3054,-0.3086,-0.3086,-0.3086,-0.3073,-0.3072,-0.3072,-0.3071,-0.3032,-0.3031,-0.303,0,0,0,0,0,0,0,0,0,0,0,0,0,-0.2908,-0.285,-0.3052,-0.3054,-0.3055,-0.3086,-0.3086,-0.3086,-0.3073,-0.3072,-0.3071,-0.3071,-0.3032,-0.3031,-0.303,-0.3035,0,0,-0.3027,-0.3026,0,0,0,0,0,0,0,0,-0.2905,-0.2915,-0.3053,-0.3054,-0.3055,-0.3078,-0.2998,-0.3067,-0.3073,-0.3061,-0.3071,-0.3071,-0.3043,-0.3041,-0.3044,-0.3034,-0.3032,-0.3026,-0.3026,-0.3025,-0.3025,0,0,0,0,0,0,0,-0.29,-0.2913,-0.3061,-0.3054,-0.3056,-0.3009,-0.3018,-0.3011,-0.3051,-0.3062,-0.3063,-0.3073,-0.3043,-0.3045,-0.3043,-0.3031,-0.3027,-0.3026,-0.3025,-0.3025,-0.3016,-0.3017,0,0,0,0,0,0,-0.2914,-0.291,-0.306,-0.3063,-0.2982,-0.3014,-0.3024,-0.3068,-0.3052,-0.3051,-0.3074,-0.3073,-0.3047,-0.3044,-0.3041,-0.3044,-0.3025,-0.3024,-0.3024,-0.3016,-0.3016,-0.3017,0,0,0,0,0,0,-0.291,-0.2928,-0.3059,-0.2988,-0.3002,-0.3019,-0.3068,-0.3069,-0.3077,-0.3063,-0.3059,-0.3082,-0.3047,-0.3043,-0.3044,-0.3042,-0.3024,-0.3023,-0.3015,-0.3016,-0.3017,-0.305,0,0,0,0,0,0,-0.2904,-0.2927,-0.2957,-0.2991,-0.3007,-0.3089,-0.3069,-0.307,-0.3087,-0.3086,-0.3069,-0.3064,-0.3046,-0.3046,-0.3043,-0.304,-0.3022,-0.3015,-0.3016,-0.3016,-0.3049,-0.3052,-0.3055,0,0,0,0,0,-0.2897,-0.2948,-0.296,-0.2977,-0.3052,-0.3091,-0.3095,-0.3099,-0.3088,-0.3101,-0.3087,-0.3065,-0.3048,-0.3046,-0.3043,-0.3039,-0.3015,-0.3015,-0.3016,-0.3047,-0.3051,-0.3055,0,0,0,0,0,0,-0.2852,-0.2953,-0.2966,-0.3039,-0.3067,-0.3091,-0.3105,-0.3107,-0.3107,-0.3099,-0.3078,-0.3073,-0.3071,-0.3056,-0.3054,-0.3039,-0.3025,-0.3025,-0.3049,-0.3053,-0.3056,-0.3018,-0.3021,0,0,0,0,0,-0.2864,-0.2937,-0.2997,-0.3045,-0.3069,-0.3086,-0.31,-0.3106,-0.3114,-0.3114,-0.31,-0.3082,-0.3072,-0.3064,-0.3054,-0.3051,-0.301,-0.3045,-0.3048,-0.3051,-0.3018,-0.2976,-0.2972,-0.302,-0.302,-0.302,0,0,-0.2845,-0.2918,-0.2949,-0.3041,-0.3061,-0.3083,-0.3092,-0.3122,-0.3125,-0.3108,-0.3102,-0.3096,-0.3076,-0.3072,-0.3068,-0.3057,-0.3019,-0.3052,-0.3054,-0.3019,-0.2976,-0.2971,-0.2967,-0.302,-0.302,-0.302,0,0,-0.2829,-0.2925,-0.2961,-0.3006,-0.3063,-0.3085,-0.3098,-0.3129,-0.3135,-0.3142,-0.3124,-0.3109,-0.3107,-0.3078,-0.3066,-0.3078,-0.3041,-0.309,-0.3069,-0.303,-0.3025,-0.302,-0.2975,-0.2966,-0.3087,-0.3087,-0.3087,0,-0.2798,-0.2865,-0.2966,-0.3006,-0.303,-0.3086,-0.3091,-0.312,-0.3136,-0.3135,-0.3142,-0.3108,-0.3096,-0.3065,-0.307,-0.3079,-0.3057,-0.306,-0.3032,-0.3026,-0.3021,-0.2975,-0.2964,-0.3089,-0.3089,-0.3088,-0.3088,0,-0.2779,-0.2848,-0.2875,-0.2955,-0.2997,-0.3021,-0.3081,-0.3111,-0.3128,-0.3131,-0.3121,-0.3106,-0.3077,-0.3083,-0.3079,-0.3038,-0.3036,-0.3047,-0.302,-0.3017,-0.2971,-0.2959,-0.3091,-0.3091,-0.309,-0.309,0,0,-0.2658,-0.2829,-0.283,-0.2882,-0.2974,-0.3013,-0.3045,-0.3079,-0.3098,-0.3103,-0.3093,-0.3068,-0.306,-0.3044,-0.304,-0.3002,-0.2953,-0.301,-0.3007,-0.2958,-0.2867,-0.2676,-0.2645,-0.2974,-0.2971,-0.297,-0.2855,0,-0.2592,-0.2674,-0.276,-0.2812,-0.2864,-0.2954,-0.2986,-0.3034,-0.3071,-0.309,-0.3071,-0.3063,-0.305,-0.3045,-0.3004,-0.2982,-0.2922,-0.2982,-0.288,-0.2876,-0.2701,-0.2623,-0.2363,-0.2221,-0.2843,-0.2841,-0.284,0,-0.2521,-0.2602,-0.265,-0.28,-0.2822,-0.2859,-0.2945,-0.2979,-0.3033,-0.3057,-0.3042,-0.3046,-0.2995,-0.2995,-0.2896,-0.2946,-0.2887,-0.2855,-0.2851,-0.2639,-0.2659,-0.2321,-0.2175,-0.1983,-0.2821,-0.2822,-0.2824,0,-0.2409,-0.2528,-0.2577,-0.2622,-0.2776,-0.2813,-0.2877,-0.2954,-0.2995,-0.3032,-0.3049,-0.3006,-0.2989,-0.2916,-0.2833,-0.288,-0.2713,-0.2775,-0.2531,-0.252,-0.225,-0.2215,-0.1884,-0.2657,-0.2657,-0.2657,-0.2658,0,-0.234,-0.2383,-0.2546,-0.2585,-0.2663,-0.2763,-0.2826,-0.2904,-0.2961,-0.2982,-0.3016,-0.299,-0.2969,-0.2884,-0.2813,-0.2599,-0.2684,-0.2473,-0.2451,-0.2255,-0.2224,-0.2007,-0.2103,-0.2653,-0.2654,-0.2655,-0.2656,0,-0.2258,-0.2341,-0.2448,-0.2595,-0.264,-0.2712,-0.2844,-0.2886,-0.2936,-0.2965,-0.297,-0.2976,-0.2832,-0.2758,-0.263,-0.2542,-0.2297,-0.2282,-0.2041,-0.1988,-0.1583,-0.1696,-0.163,-0.162,-0.2005,-0.1999,-0.1994,0,-0.2218,-0.2264,-0.2466,-0.254,-0.2623,-0.2723,-0.279,-0.288,-0.2914,-0.2921,-0.2918,-0.2806,-0.2648,-0.2378,-0.2173,-0.1942,-0.2026,-0.1636,-0.1647,-0.1448,-0.1563,-0.181,-0.1829,-0.133,-0.132,-0.1312,-0.1305,0,-0.217,-0.2267,-0.2387,-0.2537,-0.2639,-0.2715,-0.28,-0.2807,-0.2859,-0.2819,-0.2684,-0.2534,-0.2247,-0.179,-0.1518,-0.1442,-0.1556,-0.146,-0.1307,-0.1013,-0.1211,-0.1224,-0.1548,-0.1233,-0.124,-0.1245,-0.1249,-0.1252,-0.2148,-0.2253,-0.2415,-0.2548,-0.2643,-0.2647,-0.2568,-0.2582,-0.2508,-0.2258,-0.2316,-0.1874,-0.1396,-0.0915,-0.0878,-0.0566,-0.0994,-0.0468,-0.0629,-0.09,-0.0844,-0.0986,-0.0618,-0.0622,-0.0625,-0.0628,-0.063,0,-0.212,-0.2256,-0.2391,-0.2502,-0.2488,-0.2559,-0.2512,-0.2298,-0.2034,-0.1801,-0.1506,-0.0789,-0.0249,0.0004,0.0406,0.0398,0.0089,0.0274,0.0036,-0.0034,-0.0088,0.001,0.0599,0.0599,0.0598,0.0598,0.0598,0.0598,-0.212,-0.2255,-0.2339,-0.2299,-0.2301,-0.206,-0.193,-0.1644,-0.1365,-0.0735,-0.0245,0.002,0.0386,0.0954,0.1207,0.1061,0.0758,0.0608,0.0385,0.0484,0.0404,0.0326,0.0416,0.108,0.108,0.0553,0.055,0.0547]},{"header":{"parameterUnit":"m.s-1","parameterCategory":2,"la1":30.2991,"la2":30.254,"lo1":-89.0895,"lo2":-89.0444,"dy":0.0017,"dx":0.0017,"nx":28,"ny":28,"refTime":"2025-07-22T03:00:00:Z","depth":"0","parameterNumber":3,"parameterNumberName":"V-component_of_CURRENTS"},"data":[0,0,0,0,0,0,0,0,0,0,0,0,0,0,0,0,0,0,0,0,0,0,0,0,0,0,0,0,0,0,0,0,0,0,0,0,0,0,0,0,0,0,0,0,0,0,0,0,0,0,0,0,0,0,0,0,0,0,-0.1425,-0.1424,0,-0.1327,-0.1326,-0.1325,-0.1238,-0.1237,-0.1235,-0.1234,-0.1096,-0.1094,-0.1091,0,0,0,0,0,0,0,0,0,0,0,0,0,-0.1367,-0.137,-0.1426,-0.1424,-0.1423,-0.1327,-0.1326,-0.1324,-0.1238,-0.1237,-0.1235,-0.1234,-0.1097,-0.1094,-0.1091,0,0,0,0,0,0,0,0,0,0,0,0,0,-0.1345,-0.1371,-0.1426,-0.1367,-0.1361,-0.1327,-0.1326,-0.1324,-0.1238,-0.1237,-0.1235,-0.1233,-0.1098,-0.1094,-0.109,-0.11,0,0,-0.1078,-0.1077,0,0,0,0,0,0,0,0,-0.1346,-0.1347,-0.1377,-0.1371,-0.1364,-0.1291,-0.1254,-0.1247,-0.1239,-0.1286,-0.1234,-0.1232,-0.1158,-0.1149,-0.1137,-0.1094,-0.1088,-0.1078,-0.1076,-0.1074,-0.1073,0,0,0,0,0,0,0,-0.1348,-0.135,-0.1388,-0.1376,-0.1368,-0.1286,-0.1283,-0.1252,-0.1233,-0.1282,-0.1275,-0.1262,-0.1154,-0.1141,-0.1133,-0.1086,-0.1078,-0.1075,-0.1072,-0.1071,-0.0987,-0.0987,0,0,0,0,0,0,-0.1369,-0.1353,-0.1391,-0.1385,-0.1349,-0.1289,-0.1286,-0.1318,-0.1234,-0.122,-0.1264,-0.1259,-0.1149,-0.1138,-0.1128,-0.112,-0.1074,-0.107,-0.1068,-0.0987,-0.0987,-0.0987,0,0,0,0,0,0,-0.1369,-0.1376,-0.1395,-0.1362,-0.1358,-0.1293,-0.1329,-0.1317,-0.1301,-0.1221,-0.1205,-0.126,-0.1147,-0.1133,-0.1102,-0.1115,-0.1068,-0.1065,-0.0987,-0.0987,-0.0987,-0.1115,0,0,0,0,0,0,-0.1369,-0.1378,-0.1401,-0.1366,-0.1361,-0.1378,-0.133,-0.1316,-0.1295,-0.1287,-0.1213,-0.1198,-0.1144,-0.1108,-0.1098,-0.1108,-0.1062,-0.0986,-0.0987,-0.0987,-0.111,-0.1119,-0.1127,0,0,0,0,0,-0.1368,-0.1406,-0.1405,-0.1407,-0.1401,-0.1379,-0.137,-0.1316,-0.1297,-0.1295,-0.1247,-0.12,-0.1101,-0.1106,-0.1094,-0.1103,-0.0986,-0.0987,-0.0987,-0.1107,-0.1118,-0.1127,0,0,0,0,0,0,-0.1377,-0.14,-0.1397,-0.1437,-0.1413,-0.1364,-0.1358,-0.1329,-0.1292,-0.1284,-0.1214,-0.1197,-0.1168,-0.112,-0.1127,-0.1076,-0.1032,-0.103,-0.1127,-0.1136,-0.1144,-0.1201,-0.1058,0,0,0,0,0,-0.14,-0.1443,-0.143,-0.1457,-0.1459,-0.1416,-0.1399,-0.1367,-0.1329,-0.1311,-0.126,-0.1204,-0.1162,-0.1138,-0.1088,-0.1076,-0.1035,-0.1067,-0.1076,-0.1084,-0.1119,-0.1085,-0.1095,-0.0988,-0.0988,-0.0988,0,0,-0.1402,-0.1424,-0.1441,-0.1462,-0.1445,-0.1456,-0.1402,-0.1388,-0.1395,-0.1304,-0.1296,-0.1233,-0.1163,-0.114,-0.1122,-0.1102,-0.1082,-0.1084,-0.1091,-0.1123,-0.1087,-0.1097,-0.1107,-0.0988,-0.0988,-0.0988,0,0,-0.1435,-0.1463,-0.1512,-0.1512,-0.1503,-0.1478,-0.1483,-0.1447,-0.1434,-0.1418,-0.1352,-0.1311,-0.1242,-0.1202,-0.1172,-0.1201,-0.1126,-0.1165,-0.126,-0.1227,-0.1236,-0.1244,-0.1171,-0.1172,-0.1172,-0.1173,-0.1173,0,-0.1439,-0.1515,-0.151,-0.1554,-0.1557,-0.1501,-0.1533,-0.1518,-0.1469,-0.1477,-0.1428,-0.1355,-0.128,-0.1279,-0.1273,-0.1225,-0.1179,-0.1233,-0.1242,-0.1249,-0.1255,-0.1178,-0.1178,-0.1179,-0.1178,-0.1177,-0.1177,0,-0.1509,-0.1567,-0.1592,-0.1645,-0.1635,-0.1655,-0.1634,-0.1635,-0.1606,-0.1581,-0.1572,-0.1485,-0.1445,-0.1401,-0.1343,-0.1351,-0.1293,-0.1258,-0.1229,-0.1275,-0.1189,-0.1186,-0.1188,-0.1185,-0.1184,-0.1182,0,0,-0.1551,-0.1632,-0.1648,-0.1697,-0.1695,-0.1704,-0.1726,-0.1742,-0.1769,-0.1723,-0.1754,-0.1677,-0.1631,-0.1595,-0.1516,-0.1484,-0.1452,-0.1397,-0.1392,-0.1346,-0.1352,-0.1233,-0.1217,-0.1422,-0.1423,-0.1424,-0.1262,0,-0.1618,-0.1741,-0.1739,-0.1821,-0.1883,-0.1848,-0.1875,-0.1871,-0.1842,-0.185,-0.1802,-0.1774,-0.1706,-0.167,-0.1643,-0.1481,-0.1456,-0.1497,-0.1296,-0.129,-0.1198,-0.1215,-0.1081,-0.0921,-0.1259,-0.1258,-0.1258,0,-0.1718,-0.1785,-0.1897,-0.1964,-0.1984,-0.2003,-0.2042,-0.2046,-0.2038,-0.2017,-0.2005,-0.1936,-0.1883,-0.1811,-0.1651,-0.1678,-0.1549,-0.1436,-0.1426,-0.1282,-0.1168,-0.0933,-0.0902,-0.0844,-0.1252,-0.1253,-0.1253,0,-0.1814,-0.1908,-0.2009,-0.2032,-0.2079,-0.2117,-0.2118,-0.2111,-0.2107,-0.2108,-0.2078,-0.2047,-0.1964,-0.1862,-0.1622,-0.1634,-0.1422,-0.1398,-0.119,-0.1177,-0.1009,-0.0981,-0.0923,-0.1332,-0.1332,-0.1333,-0.1333,0,-0.1935,-0.2011,-0.2072,-0.2133,-0.2216,-0.2207,-0.2255,-0.2261,-0.2231,-0.2177,-0.2163,-0.2089,-0.197,-0.1819,-0.166,-0.1392,-0.145,-0.1218,-0.1142,-0.1042,-0.102,-0.0916,-0.0931,-0.1327,-0.1328,-0.1329,-0.133,0,-0.2029,-0.2091,-0.2196,-0.2262,-0.2277,-0.233,-0.2309,-0.2309,-0.2293,-0.2212,-0.2201,-0.2096,-0.1875,-0.1737,-0.1495,-0.1378,-0.1073,-0.1072,-0.0942,-0.0856,-0.0629,-0.0655,-0.0498,-0.0393,-0.0833,-0.0829,-0.0826,0,-0.2069,-0.2156,-0.2266,-0.2307,-0.2334,-0.238,-0.2371,-0.2351,-0.2281,-0.2158,-0.2083,-0.1921,-0.169,-0.1354,-0.1156,-0.09,-0.0874,-0.0656,-0.0678,-0.0611,-0.0584,-0.0594,-0.0518,-0.0478,-0.0473,-0.0468,-0.0464,0,-0.2117,-0.2185,-0.2266,-0.2347,-0.2376,-0.2346,-0.2305,-0.2251,-0.2137,-0.1996,-0.172,-0.1544,-0.1297,-0.0944,-0.0723,-0.0579,-0.0568,-0.0552,-0.0522,-0.0351,-0.0318,-0.0179,-0.0575,-0.0423,-0.0427,-0.043,-0.0432,-0.0434,-0.2109,-0.2182,-0.2292,-0.2343,-0.2339,-0.2203,-0.2061,-0.1935,-0.1705,-0.1311,-0.1296,-0.0839,-0.0694,-0.0341,-0.0281,-0.0118,-0.0212,-0.0033,-0.0076,-0.0097,0.0006,-0.0292,-0.0041,-0.0042,-0.0044,-0.0045,-0.0047,0,-0.2073,-0.2171,-0.2243,-0.2232,-0.2094,-0.2118,-0.1903,-0.164,-0.1207,-0.0869,-0.0493,0.005,0.0205,0.0233,0.0306,0.0354,0.036,0.0361,0.0351,0.0402,0.013,0.0144,0.0494,0.0494,0.0494,0.0494,0.0493,0.0493,-0.2064,-0.2154,-0.2191,-0.1963,-0.1866,-0.1508,-0.1291,-0.0936,-0.0602,0.0135,0.0647,0.0933,0.0968,0.0645,0.058,0.0584,0.0661,0.0673,0.0655,0.0413,0.0371,0.0331,0.0341,0.0726,0.0726,0.1013,0.1015,0.1016]}],[{"header":{"parameterUnit":"m.s-1","parameterCategory":2,"la1":30.2991,"la2":30.254,"lo1":-89.0895,"lo2":-89.0444,"dy":0.0017,"dx":0.0017,"nx":28,"ny":28,"refTime":"2025-07-22T03:00:00:Z","depth":"2","parameterNumber":2,"parameterNumberName":"U-component_of_CURRENTS"},"data":[0,0,0,0,0,0,0,0,0,0,0,0,0,0,0,0,0,0,0,0,0,0,0,0,0,0,0,0,0,0,0,0,0,0,0,0,0,0,0,0,0,0,0,0,0,0,0,0,0,0,0,0,0,0,0,0,0,0,-0.1544,-0.1544,0,-0.1572,-0.1573,-0.1573,-0.1645,-0.1646,-0.1648,-0.165,-0.1832,-0.1835,-0.1838,0,0,0,0,0,0,0,0,0,0,0,0,0,-0.1607,-0.1605,-0.1544,-0.1544,-0.1545,-0.1572,-0.1573,-0.1573,-0.1644,-0.1646,-0.1648,-0.165,-0.1831,-0.1835,-0.1838,0,0,0,0,0,0,0,0,0,0,0,0,0,-0.1601,-0.1605,-0.1544,-0.1585,-0.1589,-0.1572,-0.1573,-0.1573,-0.1644,-0.1646,-0.1649,-0.1651,-0.1829,-0.1834,-0.1839,-0.1821,0,0,-0.1854,-0.1856,0,0,0,0,0,0,0,0,-0.1601,-0.1598,-0.1578,-0.1582,-0.1587,-0.1609,-0.1662,-0.1664,-0.1643,-0.1622,-0.165,-0.1652,-0.177,-0.178,-0.1776,-0.1829,-0.1837,-0.1855,-0.1858,-0.186,-0.1861,0,0,0,0,0,0,0,-0.1601,-0.1598,-0.1554,-0.1579,-0.1584,-0.1621,-0.1622,-0.1662,-0.1684,-0.1624,-0.1629,-0.1634,-0.1774,-0.1771,-0.1782,-0.184,-0.1855,-0.1859,-0.1862,-0.1864,-0.1853,-0.1849,0,0,0,0,0,0,-0.1594,-0.1597,-0.1553,-0.1555,-0.1601,-0.1618,-0.1619,-0.1598,-0.168,-0.1694,-0.1632,-0.1637,-0.1761,-0.1776,-0.1788,-0.1806,-0.186,-0.1865,-0.1867,-0.1856,-0.1852,-0.1848,0,0,0,0,0,0,-0.1595,-0.1589,-0.1552,-0.158,-0.1578,-0.1614,-0.159,-0.1597,-0.1619,-0.1685,-0.1702,-0.1649,-0.1764,-0.1782,-0.1807,-0.1814,-0.1867,-0.1871,-0.186,-0.1855,-0.185,-0.1821,0,0,0,0,0,0,-0.1596,-0.1588,-0.1583,-0.1578,-0.1576,-0.1542,-0.1588,-0.1596,-0.1617,-0.1625,-0.1705,-0.1723,-0.1767,-0.1799,-0.1812,-0.1821,-0.1875,-0.1864,-0.1857,-0.1852,-0.1826,-0.1816,-0.1807,0,0,0,0,0,-0.1598,-0.1578,-0.1582,-0.1578,-0.1563,-0.1541,-0.1543,-0.1578,-0.1616,-0.161,-0.165,-0.1722,-0.1769,-0.1801,-0.1817,-0.1828,-0.1867,-0.1859,-0.1852,-0.1831,-0.1818,-0.1807,0,0,0,0,0,0,-0.161,-0.1583,-0.1588,-0.1563,-0.1553,-0.1554,-0.1551,-0.158,-0.1604,-0.1624,-0.1693,-0.171,-0.1727,-0.1759,-0.1792,-0.1792,-0.1825,-0.182,-0.1802,-0.1791,-0.1782,-0.1814,-0.1879,0,0,0,0,0,-0.1604,-0.1583,-0.1563,-0.1547,-0.1529,-0.1541,-0.1545,-0.1567,-0.1583,-0.1598,-0.1644,-0.168,-0.1699,-0.1735,-0.1746,-0.1766,-0.1782,-0.177,-0.1761,-0.1753,-0.1781,-0.1771,-0.1765,-0.1824,-0.1824,-0.1824,0,0,-0.1605,-0.1592,-0.158,-0.155,-0.1537,-0.153,-0.1548,-0.1544,-0.1566,-0.1614,-0.1647,-0.165,-0.1687,-0.1692,-0.1705,-0.1736,-0.1732,-0.1744,-0.1738,-0.1771,-0.1763,-0.1758,-0.1754,-0.1819,-0.182,-0.1821,0,0,-0.1596,-0.1571,-0.1549,-0.1539,-0.1525,-0.1527,-0.1528,-0.1522,-0.1539,-0.1554,-0.1581,-0.1584,-0.1627,-0.1645,-0.1666,-0.1608,-0.1667,-0.1603,-0.1616,-0.1605,-0.1602,-0.16,-0.1579,-0.1576,-0.1617,-0.1617,-0.1617,0,-0.1605,-0.1574,-0.1543,-0.1528,-0.1532,-0.1528,-0.1524,-0.1531,-0.1547,-0.1559,-0.1563,-0.1581,-0.1609,-0.1633,-0.1604,-0.1598,-0.1594,-0.1673,-0.1599,-0.1598,-0.1596,-0.1576,-0.1573,-0.1615,-0.1615,-0.1615,-0.1616,0,-0.1577,-0.157,-0.1549,-0.1533,-0.1531,-0.1517,-0.1519,-0.1522,-0.154,-0.1556,-0.1556,-0.1554,-0.1577,-0.1563,-0.1583,-0.1577,-0.1574,-0.1579,-0.1648,-0.159,-0.157,-0.1567,-0.1612,-0.1612,-0.1613,-0.1614,0,0,-0.1546,-0.1533,-0.153,-0.1534,-0.1535,-0.1524,-0.1546,-0.155,-0.1571,-0.1566,-0.1584,-0.1579,-0.1572,-0.1589,-0.1587,-0.1583,-0.1547,-0.1584,-0.1584,-0.1597,-0.1515,-0.1395,-0.1381,-0.1545,-0.1545,-0.1545,-0.1496,0,-0.1534,-0.152,-0.1526,-0.1533,-0.1518,-0.1536,-0.1555,-0.1575,-0.1583,-0.1589,-0.1587,-0.1591,-0.1586,-0.1584,-0.1577,-0.1554,-0.1543,-0.156,-0.1542,-0.1541,-0.147,-0.1375,-0.1298,-0.1238,-0.1493,-0.1493,-0.1493,0,-0.1495,-0.1499,-0.1497,-0.1528,-0.152,-0.1538,-0.1561,-0.158,-0.1599,-0.1605,-0.1614,-0.1611,-0.1607,-0.1596,-0.1562,-0.1574,-0.1549,-0.1528,-0.1526,-0.1436,-0.1416,-0.1339,-0.1224,-0.1488,-0.1489,-0.1489,-0.1489,0,-0.1466,-0.1478,-0.1481,-0.1488,-0.1517,-0.1532,-0.1554,-0.1582,-0.1598,-0.1614,-0.1619,-0.1618,-0.1606,-0.1584,-0.1542,-0.1555,-0.149,-0.1502,-0.1373,-0.1365,-0.1309,-0.1294,-0.148,-0.148,-0.148,-0.148,-0.148,0,-0.144,-0.1443,-0.1466,-0.1469,-0.1479,-0.1513,-0.1527,-0.1554,-0.1588,-0.1602,-0.1619,-0.1604,-0.1603,-0.1568,-0.1538,-0.1428,-0.1485,-0.1361,-0.1338,-0.1286,-0.1271,-0.1509,-0.1513,-0.1478,-0.1478,-0.1479,-0.1479,0,-0.1401,-0.1414,-0.1423,-0.1458,-0.1461,-0.1472,-0.1513,-0.1528,-0.1563,-0.1582,-0.1591,-0.1593,-0.1519,-0.1497,-0.1444,-0.1398,-0.1326,-0.1281,-0.1208,-0.1175,-0.1214,-0.1217,-0.1127,-0.1122,-0.1118,-0.1115,-0.1112,0,-0.1383,-0.1374,-0.1403,-0.1403,-0.1417,-0.1432,-0.1444,-0.1503,-0.1522,-0.1557,-0.1556,-0.151,-0.1411,-0.1268,-0.1194,-0.1092,-0.119,-0.0993,-0.0994,-0.1188,-0.1175,-0.1184,-0.1192,-0.0906,-0.0902,-0.0898,-0.0895,0,-0.1345,-0.135,-0.1354,-0.1342,-0.1354,-0.1375,-0.14,-0.142,-0.1488,-0.1467,-0.1399,-0.1315,-0.1177,-0.1002,-0.0905,-0.0849,-0.0998,-0.0912,-0.1138,-0.099,-0.097,-0.0961,-0.0978,-0.0864,-0.0867,-0.0869,-0.0871,-0.0872,-0.1311,-0.1296,-0.1278,-0.1263,-0.1274,-0.1291,-0.1265,-0.1292,-0.127,-0.1217,-0.1211,-0.1031,-0.1023,-0.0748,-0.0676,-0.0629,-0.07,-0.071,-0.0726,-0.0744,-0.071,-0.0682,-0.0516,-0.0517,-0.0518,-0.0519,-0.0519,0,-0.1255,-0.122,-0.1195,-0.1173,-0.1124,-0.1184,-0.1196,-0.1139,-0.1045,-0.0989,-0.0849,-0.0713,-0.0591,-0.0573,-0.0433,-0.0391,-0.043,-0.0387,-0.0479,-0.0508,-0.0535,-0.0496,-0.0243,-0.0242,-0.0241,-0.024,0,0,-0.1219,-0.115,-0.1116,-0.099,-0.0983,-0.0906,-0.0885,-0.0811,-0.0718,-0.0562,-0.0456,-0.0473,-0.0502,-0.0387,-0.0354,-0.0259,-0.0364,-0.0222,-0.0442,-0.0574,-0.0599,-0.0716,-0.0686,0,0,0,0,0]},{"header":{"parameterUnit":"m.s-1","parameterCategory":2,"la1":30.2991,"la2":30.254,"lo1":-89.0895,"lo2":-89.0444,"dy":0.0017,"dx":0.0017,"nx":28,"ny":28,"refTime":"2025-07-22T03:00:00:Z","depth":"2","parameterNumber":3,"parameterNumberName":"V-component_of_CURRENTS"},"data":[0,0,0,0,0,0,0,0,0,0,0,0,0,0,0,0,0,0,0,0,0,0,0,0,0,0,0,0,0,0,0,0,0,0,0,0,0,0,0,0,0,0,0,0,0,0,0,0,0,0,0,0,0,0,0,0,0,0,-0.0283,-0.0282,0,-0.0231,-0.0231,-0.0231,-0.0194,-0.0193,-0.0193,-0.0192,-0.0038,-0.0034,-0.003,0,0,0,0,0,0,0,0,0,0,0,0,0,-0.0363,-0.0362,-0.0283,-0.0282,-0.0281,-0.0232,-0.0231,-0.023,-0.0194,-0.0193,-0.0193,-0.0192,-0.0039,-0.0034,-0.003,0,0,0,0,0,0,0,0,0,0,0,0,0,-0.0323,-0.0361,-0.0283,-0.0255,-0.0252,-0.0232,-0.0231,-0.023,-0.0194,-0.0193,-0.0192,-0.0192,-0.004,-0.0035,-0.0029,-0.001,0,0,-0.0013,-0.001,0,0,0,0,0,0,0,0,-0.0326,-0.0321,-0.026,-0.0257,-0.0254,-0.0216,-0.0202,-0.0151,-0.0194,-0.0218,-0.0192,-0.0191,-0.0087,-0.0078,-0.0074,-0.0003,0.0004,-0.0012,-0.0009,-0.0006,-0.0005,0,0,0,0,0,0,0,-0.0328,-0.0323,-0.0264,-0.0259,-0.0255,-0.025,-0.0244,-0.0193,-0.0157,-0.0216,-0.0213,-0.0204,-0.0085,-0.0079,-0.007,0.0006,-0.0012,-0.0007,-0.0004,-0.0002,0.0094,0.0093,0,0,0,0,0,0,-0.0331,-0.0325,-0.0266,-0.0263,-0.0286,-0.0249,-0.0242,-0.0231,-0.0159,-0.0148,-0.0205,-0.0203,-0.0089,-0.0076,-0.0064,-0.0028,-0.0006,-0.0001,0.0002,0.0094,0.0093,0.0093,0,0,0,0,0,0,-0.0333,-0.0326,-0.0268,-0.0291,-0.0283,-0.0248,-0.0236,-0.023,-0.0219,-0.0152,-0.0139,-0.0199,-0.0088,-0.0072,-0.0037,-0.0021,0.0001,0.0006,0.0095,0.0094,0.0093,0.004,0,0,0,0,0,0,-0.0335,-0.0327,-0.0322,-0.0291,-0.0282,-0.0255,-0.0236,-0.0229,-0.0214,-0.0211,-0.0142,-0.0128,-0.0086,-0.0046,-0.0032,-0.0013,0.001,0.0096,0.0095,0.0093,0.0043,0.0037,0.0033,0,0,0,0,0,-0.0338,-0.0331,-0.0322,-0.0315,-0.0276,-0.0255,-0.0251,-0.0225,-0.0215,-0.0212,-0.0182,-0.013,-0.0044,-0.0043,-0.0026,-0.0005,0.0097,0.0095,0.0093,0.0045,0.0038,0.0033,0,0,0,0,0,0,-0.0362,-0.0326,-0.0315,-0.0297,-0.0279,-0.0248,-0.024,-0.0227,-0.0203,-0.0197,-0.0141,-0.0125,-0.009,-0.0049,-0.0048,0.0014,0.0036,0.0038,-0.0006,-0.0012,-0.0017,-0.0013,0.0015,0,0,0,0,0,-0.0367,-0.0357,-0.0321,-0.0313,-0.0298,-0.0272,-0.0261,-0.0246,-0.0219,-0.0208,-0.0165,-0.0121,-0.0086,-0.0052,-0.0017,0.0024,0.007,0.0046,0.0041,0.0037,0.0049,0.0098,0.0099,0.0087,0.0087,0.0087,0,0,-0.0375,-0.0355,-0.035,-0.0319,-0.03,-0.0284,-0.0264,-0.0248,-0.0237,-0.0192,-0.0166,-0.0139,-0.0085,-0.0052,-0.003,-0.001,0.0064,0.0034,0.0031,0.0045,0.0096,0.0097,0.0099,0.0086,0.0086,0.0086,0,0,-0.0387,-0.0367,-0.0358,-0.0343,-0.0315,-0.0297,-0.0293,-0.0262,-0.0247,-0.0225,-0.0198,-0.017,-0.0105,-0.007,-0.0041,-0.0051,0.0024,-0.0036,-0.0038,0.0008,0.001,0.0013,0.0074,0.0083,-0.0025,-0.0025,-0.0025,0,-0.0398,-0.0383,-0.0356,-0.0343,-0.0334,-0.0303,-0.0296,-0.0275,-0.0243,-0.023,-0.022,-0.0153,-0.011,-0.0066,-0.0074,-0.0057,-0.0017,-0.0018,0.0003,0.0006,0.001,0.0073,0.0083,-0.0028,-0.0028,-0.0027,-0.0027,0,-0.0398,-0.039,-0.0384,-0.0358,-0.0346,-0.0338,-0.0303,-0.0289,-0.027,-0.0247,-0.0212,-0.0171,-0.0127,-0.0112,-0.009,-0.0048,-0.0022,-0.002,0.0022,0.0008,0.0075,0.0086,-0.0032,-0.0031,-0.003,-0.003,0,0,-0.0413,-0.0389,-0.0388,-0.0389,-0.0356,-0.035,-0.0326,-0.0299,-0.0285,-0.0248,-0.0225,-0.0175,-0.0156,-0.0125,-0.0094,-0.0048,0.0006,-0.0023,-0.0019,0.0044,0.0124,0.0153,0.0168,0.0011,0.0013,0.0014,0.0163,0,-0.0423,-0.0418,-0.0399,-0.0402,-0.0395,-0.0368,-0.0353,-0.0326,-0.0294,-0.0264,-0.0211,-0.0179,-0.0157,-0.014,-0.0093,-0.0023,0.0032,-0.0034,0.0124,0.013,0.0161,0.0181,0.013,0.0259,0.0174,0.0176,0.0178,0,-0.0421,-0.0425,-0.0429,-0.0431,-0.0424,-0.0423,-0.0401,-0.0383,-0.0327,-0.03,-0.0253,-0.0209,-0.0137,-0.0126,0.0013,-0.003,0.0045,0.0104,0.0111,0.0168,0.0179,0.0258,0.0284,0.0197,0.0196,0.0194,0.0193,0,-0.045,-0.0445,-0.0458,-0.0457,-0.0445,-0.0449,-0.0444,-0.04,-0.0382,-0.0322,-0.0289,-0.021,-0.0148,-0.0061,0.0064,0.0042,0.0224,0.0209,0.0311,0.0315,0.032,0.0321,0.031,0.031,0.031,0.0309,0.0309,0,-0.0464,-0.0477,-0.0478,-0.0489,-0.0513,-0.0488,-0.0494,-0.0472,-0.0424,-0.0372,-0.0314,-0.0236,-0.0127,-0.001,0.0077,0.0243,0.0241,0.0329,0.0358,0.0299,0.0297,0.0277,0.0271,0.0315,0.0313,0.0312,0.0311,0,-0.049,-0.0484,-0.0516,-0.0526,-0.0528,-0.0552,-0.0543,-0.054,-0.0478,-0.0403,-0.0379,-0.0239,-0.0071,0.0042,0.0216,0.0283,0.0414,0.0469,0.0402,0.042,0.0471,0.0461,0.0603,0.0605,0.0607,0.0609,0.061,0,-0.0508,-0.052,-0.0558,-0.0584,-0.0596,-0.0614,-0.0623,-0.0583,-0.0558,-0.0376,-0.0338,-0.0155,-0.0019,0.0228,0.0383,0.0544,0.0509,0.0577,0.052,0.0489,0.0503,0.0489,0.0477,0.0512,0.0512,0.0513,0.0513,0,-0.0551,-0.0565,-0.0594,-0.0646,-0.0676,-0.0696,-0.0692,-0.0666,-0.0559,-0.0477,-0.0295,-0.0168,0.0119,0.0291,0.049,0.0571,0.0537,0.0592,0.0594,0.0436,0.0413,0.0423,0.0412,0.0516,0.0516,0.0516,0.0516,0.0515,-0.0597,-0.0633,-0.0667,-0.0718,-0.075,-0.0758,-0.0759,-0.071,-0.0644,-0.0447,-0.0283,-0.0051,0.0123,0.0429,0.053,0.0634,0.0657,0.0629,0.0624,0.062,0.0573,0.0553,0.0676,0.0677,0.0677,0.0678,0.0678,0,-0.0654,-0.0684,-0.0732,-0.0786,-0.0829,-0.0819,-0.0792,-0.0765,-0.0674,-0.0428,-0.0249,0.0005,0.0204,0.0383,0.0567,0.0655,0.0615,0.0625,0.0537,0.0535,0.0533,0.0476,0.0557,0.0557,0.0557,0.0557,0,0,-0.0688,-0.0749,-0.0769,-0.0844,-0.0866,-0.0892,-0.087,-0.0792,-0.0648,-0.042,-0.0195,0.0068,0.0272,0.0357,0.044,0.0505,0.0486,0.0496,0.0585,0.0466,0.0462,0.0532,0.0444,0,0,0,0,0]}],[{"header":{"parameterUnit":"m.s-1","parameterCategory":2,"la1":30.2991,"la2":30.254,"lo1":-89.0895,"lo2":-89.0444,"dy":0.0017,"dx":0.0017,"nx":28,"ny":28,"refTime":"2025-07-22T03:00:00:Z","depth":"4","parameterNumber":2,"parameterNumberName":"U-component_of_CURRENTS"},"data":[0,0,0,0,0,0,0,0,0,0,0,0,0,0,0,0,0,0,0,0,0,0,0,0,0,0,0,0,0,0,0,0,0,0,0,0,0,0,0,0,0,0,0,0,0,0,0,0,0,0,0,0,0,0,0,0,0,0,-0.1099,-0.1099,0,-0.11,-0.11,-0.11,-0.1126,-0.1127,-0.1127,-0.1128,-0.1155,-0.1156,-0.1156,0,0,0,0,0,0,0,0,0,0,0,0,0,-0.1119,-0.1118,-0.1099,-0.1099,-0.1099,-0.11,-0.11,-0.11,-0.1126,-0.1127,-0.1127,-0.1128,-0.1155,-0.1156,-0.1156,0,0,0,0,0,0,0,0,0,0,0,0,0,-0.1114,-0.1118,-0.1099,-0.1111,-0.1113,-0.11,-0.11,-0.11,-0.1126,-0.1127,-0.1128,-0.1129,-0.1155,-0.1156,-0.1156,-0.1138,0,0,-0.1156,-0.1157,0,0,0,0,0,0,0,0,-0.1115,-0.1114,-0.1109,-0.111,-0.1112,-0.1114,-0.1118,-0.1114,-0.1125,-0.1121,-0.1128,-0.1129,-0.1143,-0.1144,-0.1142,-0.1139,-0.1141,-0.1156,-0.1157,-0.1157,-0.1157,0,0,0,0,0,0,0,-0.1115,-0.1114,-0.1099,-0.1109,-0.1111,-0.1118,-0.1118,-0.1117,-0.1127,-0.1121,-0.1123,-0.1123,-0.1144,-0.1142,-0.1143,-0.1141,-0.1156,-0.1157,-0.1157,-0.1157,-0.1186,-0.1187,0,0,0,0,0,0,-0.1113,-0.1114,-0.1099,-0.11,-0.1115,-0.1116,-0.1117,-0.1112,-0.1127,-0.113,-0.1122,-0.1124,-0.1141,-0.1143,-0.1144,-0.1187,-0.1157,-0.1157,-0.1157,-0.1186,-0.1187,-0.1187,0,0,0,0,0,0,-0.1113,-0.1111,-0.1099,-0.1107,-0.1106,-0.1115,-0.111,-0.1112,-0.1131,-0.1127,-0.1131,-0.1142,-0.1142,-0.1144,-0.116,-0.1186,-0.1157,-0.1157,-0.1185,-0.1186,-0.1187,-0.1232,0,0,0,0,0,0,-0.1114,-0.1111,-0.1117,-0.1107,-0.1105,-0.1104,-0.1109,-0.1111,-0.1128,-0.1132,-0.1145,-0.1147,-0.1143,-0.116,-0.1161,-0.1186,-0.1157,-0.1184,-0.1185,-0.1187,-0.1229,-0.1234,-0.1238,0,0,0,0,0,-0.1114,-0.111,-0.1117,-0.1115,-0.1109,-0.1104,-0.1104,-0.1114,-0.1129,-0.1136,-0.1148,-0.1148,-0.1169,-0.1161,-0.1161,-0.1187,-0.1184,-0.1185,-0.1186,-0.1228,-0.1233,-0.1238,0,0,0,0,0,0,-0.1126,-0.1112,-0.1119,-0.1113,-0.1116,-0.1109,-0.1115,-0.1125,-0.1139,-0.1149,-0.1151,-0.1154,-0.118,-0.1173,-0.1164,-0.1198,-0.1178,-0.1179,-0.1209,-0.1214,-0.1219,-0.1217,-0.1158,0,0,0,0,0,-0.1129,-0.1123,-0.1117,-0.1117,-0.1117,-0.1122,-0.1126,-0.1133,-0.1139,-0.1147,-0.1157,-0.1168,-0.1181,-0.119,-0.1195,-0.1209,-0.1184,-0.1227,-0.1231,-0.1235,-0.1233,-0.1216,-0.1218,-0.1192,-0.1192,-0.1192,0,0,-0.1136,-0.1127,-0.1126,-0.112,-0.1122,-0.1131,-0.1127,-0.1135,-0.1156,-0.1147,-0.118,-0.1184,-0.1188,-0.1209,-0.122,-0.1209,-0.1229,-0.1237,-0.124,-0.1236,-0.1217,-0.122,-0.1222,-0.1193,-0.1193,-0.1193,0,0,-0.114,-0.1137,-0.1135,-0.1139,-0.1143,-0.1146,-0.1154,-0.1158,-0.1174,-0.1197,-0.1202,-0.1218,-0.1236,-0.1242,-0.1248,-0.1277,-0.1253,-0.1286,-0.1307,-0.1291,-0.1293,-0.1294,-0.1261,-0.1259,-0.1288,-0.1288,-0.1288,0,-0.1154,-0.1147,-0.1137,-0.1142,-0.115,-0.1158,-0.117,-0.1185,-0.12,-0.121,-0.1217,-0.1245,-0.1252,-0.1275,-0.129,-0.1288,-0.1266,-0.1289,-0.1296,-0.1297,-0.1297,-0.1263,-0.126,-0.129,-0.129,-0.1289,-0.1289,0,-0.1153,-0.1161,-0.1161,-0.1171,-0.1181,-0.1189,-0.1206,-0.1226,-0.1248,-0.1258,-0.1287,-0.129,-0.1301,-0.1316,-0.1317,-0.1331,-0.131,-0.1304,-0.1282,-0.1303,-0.1265,-0.1262,-0.1293,-0.1293,-0.1292,-0.1291,0,0,-0.1148,-0.1158,-0.1163,-0.1173,-0.1196,-0.1199,-0.1239,-0.126,-0.1279,-0.1306,-0.1321,-0.1356,-0.1349,-0.1355,-0.1355,-0.1351,-0.1342,-0.1335,-0.1333,-0.13,-0.1291,-0.1191,-0.1177,-0.1338,-0.1337,-0.1337,-0.1261,0,-0.1155,-0.1166,-0.1174,-0.1202,-0.1208,-0.1232,-0.1261,-0.1288,-0.1309,-0.1325,-0.1341,-0.1355,-0.1368,-0.1369,-0.137,-0.1348,-0.1335,-0.1362,-0.1277,-0.1274,-0.1182,-0.117,-0.1337,-0.1258,-0.1257,-0.1256,-0.1256,0,-0.1145,-0.1156,-0.1177,-0.1205,-0.121,-0.1236,-0.127,-0.1296,-0.1325,-0.1338,-0.1357,-0.136,-0.137,-0.1369,-0.1343,-0.1359,-0.1329,-0.131,-0.1307,-0.1194,-0.1167,-0.1234,-0.1249,-0.1249,-0.125,-0.125,-0.1251,0,-0.1123,-0.1155,-0.1172,-0.1183,-0.1219,-0.124,-0.1265,-0.13,-0.1309,-0.1341,-0.1336,-0.1356,-0.1345,-0.1332,-0.1303,-0.1321,-0.1254,-0.1266,-0.1146,-0.1138,-0.1233,-0.1232,-0.1235,-0.1235,-0.1235,-0.1235,-0.1236,0,-0.1106,-0.1122,-0.1165,-0.1172,-0.1193,-0.1227,-0.1247,-0.1276,-0.1297,-0.1285,-0.1333,-0.131,-0.1335,-0.1302,-0.1288,-0.1191,-0.1235,-0.1136,-0.1108,-0.1253,-0.1255,-0.1229,-0.123,-0.1232,-0.1233,-0.1234,-0.1234,0,-0.1066,-0.1097,-0.1116,-0.1163,-0.1178,-0.1193,-0.1226,-0.1223,-0.1263,-0.1244,-0.1249,-0.1264,-0.1214,-0.1216,-0.1175,-0.114,-0.1082,-0.1037,-0.1174,-0.1158,-0.0983,-0.0987,-0.0891,-0.0887,-0.0883,-0.088,-0.0878,0,-0.104,-0.1046,-0.1099,-0.1106,-0.1128,-0.1155,-0.1154,-0.1198,-0.1185,-0.1195,-0.1162,-0.1138,-0.1133,-0.0993,-0.1019,-0.0961,-0.0956,-0.0924,-0.0974,-0.0963,-0.0946,-0.0956,-0.0964,-0.0872,-0.0871,-0.087,-0.0869,0,-0.099,-0.1017,-0.103,-0.1041,-0.105,-0.1048,-0.1055,-0.1038,-0.1062,-0.1112,-0.1037,-0.1002,-0.0933,-0.0908,-0.0861,-0.0833,-0.0951,-0.0887,-0.0895,-0.0942,-0.0939,-0.0928,-0.094,-0.0857,-0.0858,-0.0859,-0.086,0,-0.0949,-0.0943,-0.0956,-0.095,-0.0956,-0.0914,-0.0944,-0.0909,-0.0902,-0.0929,-0.0897,-0.0881,-0.0907,-0.0836,-0.0799,-0.0755,-0.0751,-0.0743,-0.0759,-0.0773,-0.0771,-0.0752,-0.0573,0,0,0,0,0,-0.0902,-0.0866,-0.0857,-0.0828,-0.0826,-0.0819,-0.0848,-0.0877,-0.0912,-0.0825,-0.086,-0.0795,-0.0729,-0.0734,-0.0661,-0.0739,-0.0754,-0.0652,-0.0755,-0.0787,-0.0802,-0.0812,0,0,0,0,0,0,-0.0865,-0.085,-0.0819,-0.0711,-0.0666,-0.0636,-0.0649,-0.0685,-0.0654,-0.0712,-0.0682,-0.0729,-0.0681,-0.0735,-0.0632,-0.0631,-0.0677,-0.0658,-0.0655,-0.0779,-0.0792,-0.0804,-0.082,0,0,0,0,0]},{"header":{"parameterUnit":"m.s-1","parameterCategory":2,"la1":30.2991,"la2":30.254,"lo1":-89.0895,"lo2":-89.0444,"dy":0.0017,"dx":0.0017,"nx":28,"ny":28,"refTime":"2025-07-22T03:00:00:Z","depth":"4","parameterNumber":3,"parameterNumberName":"V-component_of_CURRENTS"},"data":[0,0,0,0,0,0,0,0,0,0,0,0,0,0,0,0,0,0,0,0,0,0,0,0,0,0,0,0,0,0,0,0,0,0,0,0,0,0,0,0,0,0,0,0,0,0,0,0,0,0,0,0,0,0,0,0,0,0,-0.0202,-0.0202,0,-0.0189,-0.0189,-0.0189,-0.0183,-0.0183,-0.0182,-0.0182,-0.017,-0.0169,-0.0169,0,0,0,0,0,0,0,0,0,0,0,0,0,-0.0224,-0.0224,-0.0202,-0.0202,-0.0202,-0.0189,-0.0189,-0.0189,-0.0183,-0.0183,-0.0182,-0.0182,-0.017,-0.0169,-0.0169,0,0,0,0,0,0,0,0,0,0,0,0,0,-0.0216,-0.0224,-0.0202,-0.0195,-0.0194,-0.0189,-0.0189,-0.0189,-0.0183,-0.0183,-0.0182,-0.0182,-0.017,-0.0169,-0.0169,-0.0174,0,0,-0.0168,-0.0168,0,0,0,0,0,0,0,0,-0.0216,-0.0215,-0.0197,-0.0196,-0.0195,-0.0185,-0.0192,-0.0183,-0.0183,-0.019,-0.0182,-0.0182,-0.0174,-0.0173,-0.0174,-0.0173,-0.0173,-0.0168,-0.0168,-0.0168,-0.0168,0,0,0,0,0,0,0,-0.0217,-0.0216,-0.0199,-0.0196,-0.0195,-0.0193,-0.0192,-0.0191,-0.0185,-0.0189,-0.0188,-0.0183,-0.0173,-0.0175,-0.0174,-0.0172,-0.0168,-0.0168,-0.0168,-0.0168,-0.0164,-0.0164,0,0,0,0,0,0,-0.0214,-0.0216,-0.02,-0.0199,-0.0202,-0.0193,-0.0192,-0.0191,-0.0185,-0.0183,-0.0183,-0.0183,-0.0175,-0.0174,-0.0173,-0.0157,-0.0168,-0.0168,-0.0168,-0.0164,-0.0164,-0.0164,0,0,0,0,0,0,-0.0215,-0.0213,-0.02,-0.0205,-0.0203,-0.0193,-0.0192,-0.019,-0.0192,-0.018,-0.0179,-0.0186,-0.0175,-0.0174,-0.0174,-0.0158,-0.0168,-0.0168,-0.0163,-0.0164,-0.0164,-0.0139,0,0,0,0,0,0,-0.0215,-0.0213,-0.0216,-0.0205,-0.0203,-0.02,-0.0192,-0.019,-0.0188,-0.0188,-0.0182,-0.0181,-0.0175,-0.0174,-0.0174,-0.0158,-0.0167,-0.0163,-0.0163,-0.0164,-0.014,-0.0138,-0.0137,0,0,0,0,0,-0.0216,-0.0219,-0.0216,-0.0214,-0.0205,-0.02,-0.0199,-0.0192,-0.0189,-0.0193,-0.0188,-0.0181,-0.0174,-0.0174,-0.0173,-0.0157,-0.0163,-0.0163,-0.0164,-0.014,-0.0138,-0.0137,0,0,0,0,0,0,-0.0231,-0.0218,-0.0215,-0.0214,-0.0209,-0.0198,-0.02,-0.0195,-0.0195,-0.0194,-0.0185,-0.0183,-0.0175,-0.0177,-0.0177,-0.0158,-0.0166,-0.0166,-0.0149,-0.0147,-0.0145,-0.0138,-0.0167,0,0,0,0,0,-0.0235,-0.0234,-0.0222,-0.0223,-0.0219,-0.0211,-0.0209,-0.0205,-0.0199,-0.0199,-0.0194,-0.0188,-0.0175,-0.017,-0.0167,-0.016,-0.0141,-0.0149,-0.0147,-0.0146,-0.0141,-0.0096,-0.009,-0.0164,-0.0164,-0.0164,0,0,-0.0242,-0.0234,-0.0235,-0.0226,-0.0222,-0.0215,-0.021,-0.0208,-0.0199,-0.0198,-0.0191,-0.0186,-0.0175,-0.0162,-0.0158,-0.016,-0.0116,-0.0146,-0.0145,-0.014,-0.0096,-0.0088,-0.0081,-0.0164,-0.0164,-0.0164,0,0,-0.0248,-0.0248,-0.0245,-0.024,-0.0231,-0.0224,-0.0224,-0.0216,-0.0209,-0.0205,-0.0194,-0.0177,-0.0175,-0.0151,-0.0139,-0.013,-0.0112,-0.0135,-0.0115,-0.0072,-0.0065,-0.0059,-0.0024,-0.0015,-0.0131,-0.0131,-0.013,0,-0.0257,-0.025,-0.0245,-0.0238,-0.0233,-0.0227,-0.0221,-0.0213,-0.0206,-0.0196,-0.0203,-0.0172,-0.0162,-0.0123,-0.0118,-0.0122,-0.0103,-0.012,-0.0068,-0.0061,-0.0055,-0.0021,-0.0011,-0.0129,-0.0129,-0.013,-0.013,0,-0.0254,-0.0251,-0.025,-0.0238,-0.0233,-0.0231,-0.0214,-0.021,-0.0204,-0.019,-0.0165,-0.0149,-0.0128,-0.0118,-0.0113,-0.0064,-0.0066,-0.0071,-0.0067,-0.0046,-0.0012,-0.0001,-0.0128,-0.0128,-0.0128,-0.0129,0,0,-0.0266,-0.0251,-0.0252,-0.0251,-0.0233,-0.0235,-0.0212,-0.0192,-0.0183,-0.0164,-0.0142,-0.0105,-0.0097,-0.0084,-0.007,-0.0029,0.0035,-0.0033,-0.0031,0.0011,0.0126,0.0106,0.0116,0.0039,0.0041,0.0042,0.0133,0,-0.0266,-0.0261,-0.0246,-0.0246,-0.0243,-0.0227,-0.0212,-0.0193,-0.0177,-0.0159,-0.0116,-0.0099,-0.0083,-0.0078,-0.0028,0.001,0.0062,0.0011,0.009,0.0092,0.0081,0.0127,0.0048,0.014,0.0143,0.0144,0.0145,0,-0.0262,-0.0263,-0.026,-0.0256,-0.0253,-0.0252,-0.0236,-0.0222,-0.0181,-0.0167,-0.0125,-0.0103,-0.0037,-0.0037,0.0073,0.0036,0.0087,0.0123,0.0128,0.0109,0.0092,0.0112,0.0164,0.0162,0.0161,0.016,0.0159,0,-0.0279,-0.0272,-0.0276,-0.0274,-0.0265,-0.0263,-0.026,-0.0229,-0.0224,-0.0176,-0.0168,-0.0087,-0.0059,0.0024,0.0103,0.0089,0.022,0.0208,0.0247,0.0246,0.0225,0.0217,0.03,0.03,0.03,0.03,0.0299,0,-0.0279,-0.0286,-0.0293,-0.03,-0.0321,-0.0296,-0.0308,-0.0289,-0.026,-0.0255,-0.0183,-0.0157,-0.0043,0.004,0.0114,0.0214,0.0236,0.0266,0.0275,0.0231,0.0223,0.0232,0.0223,0.0303,0.0302,0.0302,0.0301,0,-0.0291,-0.0289,-0.0311,-0.0322,-0.0332,-0.0354,-0.0365,-0.0372,-0.0329,-0.0318,-0.0305,-0.0201,-0.0085,0.0033,0.0172,0.022,0.0318,0.035,0.0299,0.0301,0.0312,0.0303,0.0403,0.0403,0.0404,0.0404,0.0404,0,-0.0293,-0.0305,-0.0351,-0.0388,-0.04,-0.0428,-0.0451,-0.0421,-0.0423,-0.0349,-0.0346,-0.0223,-0.0146,0.0044,0.0172,0.0336,0.0348,0.0392,0.0356,0.0328,0.0327,0.0318,0.0308,0.0404,0.0404,0.0404,0.0404,0,-0.0314,-0.0339,-0.037,-0.0448,-0.0494,-0.0534,-0.0556,-0.0555,-0.051,-0.0467,-0.0382,-0.0265,-0.0126,0.0034,0.0172,0.0282,0.0357,0.0394,0.0394,0.0361,0.033,0.0327,0.0318,0.0405,0.0405,0.0405,0.0405,0,-0.0351,-0.039,-0.0449,-0.0514,-0.0579,-0.0626,-0.0623,-0.0608,-0.0591,-0.0489,-0.046,-0.029,-0.0178,0.0008,0.0129,0.0246,0.0263,0.0268,0.0274,0.0275,0.0206,0.0146,0.0189,0,0,0,0,0,-0.0385,-0.0441,-0.0511,-0.059,-0.0651,-0.0683,-0.0693,-0.0671,-0.0612,-0.0567,-0.0509,-0.0376,-0.0166,-0.0059,0.0053,0.0122,0.0274,0.0253,0.028,0.0409,0.0408,0.0347,0,0,0,0,0,0,-0.0422,-0.049,-0.0525,-0.0637,-0.0695,-0.0759,-0.0765,-0.0721,-0.0678,-0.0595,-0.0475,-0.0384,-0.0169,-0.0236,0.0043,0.0084,0.0106,0.037,0.0371,0.041,0.0409,0.0408,0.0345,0,0,0,0,0]}]]